This is the latest recevied weather packets stored in our database for station/object KC5TIL-3. If no packets are shown the sender has not sent any weather packets the latest 1 day(s).
| Time | Temp. | Humidity | Pressure | Rain* | Wind** | Luminosity | Snow |
|---|---|---|---|---|---|---|---|
| 1778065414 | 13.89° C | 47% | 1009.8 hPa | 0 mm | 4.02 m/s, 17° | - | - |
| 1778064516 | 13.89° C | 46% | 1008.8 hPa | 0 mm | 4.02 m/s, 17° | - | - |
| 1778063321 | 14.44° C | 47% | 1008.8 hPa | 0 mm | 4.47 m/s, 339° | - | - |
| 1778063020 | 14.44° C | 48% | 1008.8 hPa | 0 mm | 3.58 m/s, 20° | - | - |
| 1778062721 | 14.44° C | 48% | 1008.8 hPa | 0 mm | 4.47 m/s, 23° | - | - |
| 1778061819 | 14.44° C | 48% | 1008.8 hPa | 0 mm | 2.24 m/s, 324° | - | - |
| 1778060317 | 14.44° C | 47% | 1007.8 hPa | 0 mm | 3.58 m/s, 24° | - | - |
| 1778058522 | 15° C | 48% | 1007.8 hPa | 0 mm | 3.58 m/s, 7° | - | - |
| 1778058224 | 15° C | 48% | 1007.8 hPa | 0 mm | 4.02 m/s, 347° | - | - |
| 1778057926 | 15° C | 48% | 1007.8 hPa | 0 mm | 3.13 m/s, 30° | - | - |
| 1778057620 | 15° C | 48% | 1007.8 hPa | 0 mm | 3.58 m/s, 12° | - | - |
| 1778056722 | 15° C | 48% | 1007.8 hPa | 0 mm | 4.47 m/s, 31° | - | - |
| 1778056424 | 15.56° C | 48% | 1007.8 hPa | 0 mm | 3.13 m/s, 2° | - | - |
| 1778055822 | 15.56° C | 48% | 1007.8 hPa | 0 mm | 3.13 m/s, 21° | - | - |
| 1778055525 | 15.56° C | 47% | 1007.8 hPa | 0 mm | 3.13 m/s, 9° | - | - |
| 1778053413 | 15.56° C | 49% | 1007.8 hPa | 0 mm | 3.58 m/s, 12° | - | - |
| 1778053111 | 15.56° C | 49% | 1007.8 hPa | 0 mm | 4.02 m/s, 30° | - | - |
| 1778052814 | 16.11° C | 50% | 1007.8 hPa | 0 mm | 2.68 m/s, 26° | - | - |
| 1778051618 | 16.11° C | 50% | 1006.8 hPa | 0 mm | 3.13 m/s, 19° | - | - |
| 1778051316 | 16.11° C | 51% | 1006.8 hPa | 0 mm | 2.24 m/s, 345° | - | - |
| 1778050413 | 16.11° C | 51% | 1006.8 hPa | 0 mm | 2.24 m/s, 35° | - | - |
| 1778050116 | 16.11° C | 51% | 1007.8 hPa | 0 mm | 2.24 m/s, 42° | - | - |
| 1778049817 | 16.11° C | 51% | 1007.8 hPa | 0 mm | 2.68 m/s, 29° | - | - |
| 1778049213 | 16.11° C | 52% | 1006.8 hPa | 0 mm | 3.58 m/s, 18° | - | - |
| 1778048915 | 16.11° C | 52% | 1006.8 hPa | 0 mm | 4.02 m/s, 51° | - | - |
* Rain latest hour (hover to see other rain measurements)
** Current wind speed in m/s (hover to see current wind gust speed)